Weather History for Laurens, SC

Change the Weather History Date:

Monday, January 13, 2014

  Actual Average (KGSP) Record (KGSP)
Temperature  
Mean Temperature 47 °F 42 °F  
Max Temperature 59 °F 52 °F 79 °F (1911)
Min Temperature 35 °F 32 °F 4 °F (1918)
Degree Days  
Heating Degree Days 18 23  
Month to date heating degree days 299  
Since 1 July heating degree days 1502  
Cooling Degree Days 0 0  
Month to date cooling degree days 0  
Year to date cooling degree days 0  
Moisture  
Dew Point 36 °F    
Average Humidity 61    
Maximum Humidity 100    
Minimum Humidity 36    
Precipitation  
Precipitation 0.10 in 0.13 in 1.08 in (1948)
Month to date precipitation 1.61  
Year to date precipitation 1.61  
Snow  
Snow 0.00 in 0.10 in 3.00 in (1982)
Month to date snowfall 0.9  
Since 1 July snowfall 1.4  
Snow Depth -    
Sea Level Pressure  
Sea Level Pressure 30.09 in    
Wind  
Wind Speed 5 mph (SSW)    
Max Wind Speed 14 mph    
Max Gust Speed 18 mph    
Visibility 10 miles    
Events Rain    
T = Trace of Precipitation, MM = Missing Value Source: NWS Daily Summary

Daily Weather History Graph

Daily Weather History Graph

Search for Another Location

Airport:

Trip Planner

Search our weather history database for the weather conditions in past years. The results will help you decide how hot, cold, wet, or windy it might be!

Date:

Astronomy

Jan. 13, 2014 Rise Set
Actual Time 7:34 AM EST 5:38 PM EST
Civil Twilight 7:07 AM EST 6:06 PM EST
Nautical Twilight 6:36 AM EST 6:37 PM EST
Astronomical Twilight 6:05 AM EST 7:07 PM EST
Moon 3:52 PM EST (1/13) 5:23 AM EST (1/13)
Length of Visible Light 10h 58m
Length of Day
10h 04m
Waxing Gibbous, 95% of the Moon is Illuminated
Jan 13
Waxing Gibbous
Jan 15
Full
Jan 24
Last Quarter
Jan 30
New
Feb 6
First Quarter

Hourly Weather History & Observations

Time (EST) Temp. Windchill Dew Point Humidity Pressure Visibility Wind Dir Wind Speed Gust Speed Precip Events Conditions
12:15 AM 41.0 °F 39.0 °F 33.8 °F 76% 30.17 in 10.0 mi SSW 3.5 mph - N/A   Clear
12:35 AM 41.0 °F 38.0 °F 33.8 °F 76% 30.17 in 10.0 mi SSW 4.6 mph - N/A   Clear
12:55 AM 39.2 °F 35.0 °F 35.6 °F 87% 30.17 in 10.0 mi SSW 5.8 mph - N/A   Clear
1:15 AM 39.2 °F 35.0 °F 37.4 °F 93% 30.17 in 10.0 mi SSW 5.8 mph - N/A   Clear
1:35 AM 39.2 °F 35.9 °F 35.6 °F 87% 30.17 in 10.0 mi SSW 4.6 mph - N/A   Clear
1:55 AM 39.2 °F 35.9 °F 39.2 °F 100% 30.17 in 10.0 mi SSW 4.6 mph - N/A   Clear
2:15 AM 37.4 °F 34.9 °F 37.4 °F 100% 30.17 in 10.0 mi SSW 3.5 mph - N/A   Clear
2:35 AM 37.4 °F 33.8 °F - N/A% 30.17 in 10.0 mi SSW 4.6 mph - N/A   Clear
2:55 AM 35.6 °F 31.7 °F - N/A% 30.18 in 10.0 mi SSW 4.6 mph - N/A   Clear
3:15 AM 37.4 °F 32.8 °F - N/A% 30.18 in 10.0 mi SSW 5.8 mph - N/A   Clear
3:35 AM 35.6 °F 31.7 °F - N/A% 30.16 in 10.0 mi SSW 4.6 mph - N/A   Clear
3:55 AM 35.6 °F 31.7 °F - N/A% 30.17 in 10.0 mi SSW 4.6 mph - N/A   Clear
4:15 AM 37.4 °F 33.8 °F - N/A% 30.17 in 10.0 mi SSW 4.6 mph - N/A   Clear
4:35 AM 35.6 °F 31.7 °F - N/A% 30.18 in 10.0 mi SSW 4.6 mph - N/A   Clear
4:55 AM 35.6 °F 31.7 °F - N/A% 30.18 in 10.0 mi SSW 4.6 mph - N/A   Clear
5:15 AM 35.6 °F 32.8 °F - N/A% 30.17 in 10.0 mi SSW 3.5 mph - N/A   Clear
5:35 AM 35.6 °F 31.7 °F - N/A% 30.16 in 10.0 mi SSW 4.6 mph - N/A   Clear
5:55 AM 35.6 °F 30.7 °F - N/A% 30.17 in 10.0 mi SSW 5.8 mph - N/A   Clear
6:15 AM 35.6 °F 30.7 °F - N/A% 30.16 in 10.0 mi SSW 5.8 mph - N/A   Clear
6:35 AM 35.6 °F 31.7 °F - N/A% 30.16 in 10.0 mi SSW 4.6 mph - N/A   Clear
6:55 AM 35.6 °F 30.7 °F - N/A% 30.15 in 10.0 mi South 5.8 mph - N/A   Clear
7:15 AM 35.6 °F 31.7 °F - N/A% 30.15 in 10.0 mi South 4.6 mph - N/A   Clear
7:35 AM 35.6 °F 30.7 °F - N/A% 30.14 in 10.0 mi South 5.8 mph - N/A   Clear
7:55 AM 37.4 °F 32.8 °F - N/A% 30.14 in 10.0 mi South 5.8 mph - N/A   Clear
8:15 AM 37.4 °F 32.8 °F 37.4 °F 100% 30.15 in 10.0 mi SSW 5.8 mph - N/A   Clear
8:35 AM 37.4 °F 32.8 °F 37.4 °F 100% 30.16 in 10.0 mi SSW 5.8 mph - N/A   Clear
8:55 AM 41.0 °F 39.0 °F 37.4 °F 87% 30.15 in 10.0 mi South 3.5 mph - N/A   Clear
9:15 AM 42.8 °F 39.3 °F 35.6 °F 76% 30.16 in 10.0 mi SW 5.8 mph - N/A   Clear
9:35 AM 42.8 °F 38.6 °F 35.6 °F 76% 30.16 in 10.0 mi SSW 6.9 mph - N/A   Clear
9:55 AM 44.6 °F 42.2 °F 35.6 °F 71% 30.16 in 10.0 mi SSW 4.6 mph - N/A   Clear
10:15 AM 44.6 °F 42.2 °F 35.6 °F 71% 30.16 in 10.0 mi SSW 4.6 mph - N/A   Clear
10:35 AM 48.2 °F - 35.6 °F 62% 30.16 in 10.0 mi SW 5.8 mph - N/A   Clear
10:55 AM 51.8 °F - 35.6 °F 54% 30.17 in 10.0 mi SW 10.4 mph - N/A   Clear
11:15 AM 53.6 °F - 35.6 °F 51% 30.16 in 10.0 mi SW 10.4 mph 17.3 mph N/A   Clear
11:35 AM 53.6 °F - 35.6 °F 51% 30.14 in 10.0 mi SW 10.4 mph - N/A   Clear
11:55 AM 55.4 °F - 33.8 °F 44% 30.12 in 10.0 mi SW 6.9 mph - N/A   Clear
12:15 PM 55.4 °F - 33.8 °F 44% 30.11 in 10.0 mi SSW 10.4 mph - N/A   Clear
12:35 PM 55.4 °F - 33.8 °F 44% 30.09 in 10.0 mi SSW 12.7 mph - N/A   Clear
12:55 PM 57.2 °F - 33.8 °F 41% 30.09 in 10.0 mi SSW 9.2 mph 16.1 mph N/A   Clear
1:15 PM 57.2 °F - 33.8 °F 41% 30.06 in 10.0 mi SSW 9.2 mph - N/A   Clear
1:35 PM 57.2 °F - 32.0 °F 38% 30.04 in 10.0 mi SSW 11.5 mph - N/A   Clear
1:55 PM 59.0 °F - 32.0 °F 36% 30.04 in 10.0 mi SSW 13.8 mph 17.3 mph N/A   Clear
2:15 PM 59.0 °F - 32.0 °F 36% 30.04 in 10.0 mi South 11.5 mph 18.4 mph N/A   Clear
2:35 PM 59.0 °F - 33.8 °F 39% 30.04 in 10.0 mi SW 5.8 mph - N/A   Clear
2:55 PM 59.0 °F - 33.8 °F 39% 30.03 in 10.0 mi South 8.1 mph - N/A   Clear
3:15 PM 59.0 °F - 33.8 °F 39% 30.03 in 10.0 mi SSW 10.4 mph - N/A   Clear
3:35 PM 59.0 °F - 33.8 °F 39% 30.03 in 10.0 mi SSW 11.5 mph - N/A   Clear
3:55 PM 59.0 °F - 32.0 °F 36% 30.03 in 10.0 mi SSW 8.1 mph - N/A   Clear
4:15 PM 59.0 °F - 32.0 °F 36% 30.03 in 10.0 mi SSW 9.2 mph - N/A   Clear
4:35 PM 59.0 °F - 33.8 °F 39% 30.02 in 10.0 mi SSW 5.8 mph - N/A   Clear
4:55 PM 57.2 °F - 32.0 °F 38% 30.02 in 10.0 mi South 6.9 mph - N/A   Clear
5:15 PM 55.4 °F - 33.8 °F 44% 30.01 in 10.0 mi South 6.9 mph - N/A   Clear
5:35 PM 55.4 °F - 33.8 °F 44% 30.01 in 10.0 mi South 4.6 mph - N/A   Clear
5:55 PM 53.6 °F - 35.6 °F 51% 30.00 in 10.0 mi SSE 3.5 mph - N/A   Clear
6:15 PM 53.6 °F - 35.6 °F 51% 29.99 in 10.0 mi Calm Calm - N/A   Clear
6:35 PM 53.6 °F - 35.6 °F 51% 30.00 in 10.0 mi South 3.5 mph - N/A   Clear
6:55 PM 51.8 °F - 37.4 °F 58% 29.99 in 10.0 mi Calm Calm - N/A   Scattered Clouds
7:15 PM 53.6 °F - 35.6 °F 51% 30.00 in 10.0 mi South 3.5 mph - N/A   Scattered Clouds
7:35 PM 51.8 °F - 37.4 °F 58% 30.01 in 10.0 mi Calm Calm - N/A Rain Light Rain
7:55 PM 51.8 °F - 41.0 °F 67% 30.01 in 10.0 mi WSW 3.5 mph - N/A Rain Light Rain
8:15 PM 50.0 °F - 41.0 °F 71% 30.02 in 10.0 mi WSW 3.5 mph - N/A Rain Rain
8:35 PM 50.0 °F - 44.6 °F 82% 30.02 in 10.0 mi Calm Calm - 0.01 in Rain Light Rain
8:55 PM 48.2 °F - 46.4 °F 93% 30.02 in 10.0 mi West 4.6 mph - 0.02 in Rain Rain
9:15 PM 50.0 °F - 46.4 °F 87% 30.01 in 10.0 mi West 3.5 mph - 0.01 in Rain Light Rain
9:35 PM 48.2 °F - - N/A% 29.99 in 10.0 mi Calm Calm - 0.02 in Rain Light Rain
9:55 PM 48.2 °F - - N/A% 30.00 in 10.0 mi West 3.5 mph - 0.04 in Rain Light Rain
10:15 PM 46.4 °F - - N/A% 30.00 in 7.0 mi Calm Calm - 0.03 in Rain Rain
10:35 PM 46.4 °F - - N/A% 30.00 in 10.0 mi Calm Calm - 0.04 in Rain Light Rain
10:55 PM 46.4 °F - - N/A% 29.99 in 10.0 mi Calm Calm - 0.04 in   Overcast
11:15 PM 46.4 °F - - N/A% 29.97 in 10.0 mi Calm Calm - N/A   Overcast
11:35 PM 46.4 °F - - N/A% 29.95 in 7.0 mi Calm Calm - N/A   Overcast
11:55 PM 46.4 °F 45.2 °F - N/A% 29.93 in 5.0 mi North 3.5 mph - N/A   Haze